Regional Weather Roundup
Issued by NWS

Home | Current Version | Previous Version | Text Only | Print | Product List | Glossary Off
Versions: 1 2 3 4 5 6 7 8 9 10 11 12 13 14 15 16 17 18 19 20 21 22 23 24 25 26 27 28 29 30 31 32 33 34 35 36 37 38 39 40 41 42 43 44 45 46 47 48 49 50

000
ASUS44 KMEG 260100
RWRTN
TENNESSEE HOURLY STATE WEATHER ROUNDUP
NATIONAL WEATHER SERVICE MEMPHIS TN
800 PM CDT SAT OCT 25 2014

TNZ002-004-019-021-049-052-054-088>092-260200-
WEST TENNESSEE

CITY           SKY/WX    TMP DP  RH WIND       PRES   REMARKS
MEMPHIS INTL   CLEAR     70  63  78 S5        30.03S
NWS MEMPHIS      N/A     67 N/A N/A MISG        N/A
JACKSON        CLEAR     65  62  90 CALM      30.03R
DYERSBURG      CLEAR     66  54  63 CALM      30.04S
UNION CITY     CLEAR     63  61  94 CALM      30.02R
PARIS          CLEAR     59  55  88 CALM      30.04R
LEXINGTON      CLEAR     64  63  94 CALM      30.03R
SAVANNAH       CLEAR     64  63  94 CALM      30.04S
$$

TNZ008-025-027-028-033-062-065-066-260200-
NORTH MIDDLE TENNESSEE

CITY           SKY/WX    TMP DP  RH WIND       PRES   REMARKS
NASHVILLE      CLEAR     67  62  84 CALM      30.02S
CLARKSVILLE    CLEAR     63  60  90 CALM      30.02R
CROSSVILLE     CLEAR     57  53  86 CALM      30.06S
$$

TNZ061-075-076-078-094-096-097-260200-
SOUTH MIDDLE TENNESSEE

CITY           SKY/WX    TMP DP  RH WIND       PRES   REMARKS
SHELBYVILLE    CLEAR     63  63 100 CALM      30.04S
$$

TNZ017-018-042-046-047-260200-
NORTHEAST TENNESSEE

CITY           SKY/WX    TMP DP  RH WIND       PRES   REMARKS
TRI CITIES     MOCLDY    60  49  66 SW6       30.02S
ELIZABETHTON   CLOUDY    57  48  72 NW3       30.03S
$$

TNZ012-013-036-069-073-074-260200-
CENTRAL EAST TENNESSEE

CITY           SKY/WX    TMP DP  RH WIND       PRES   REMARKS
KNOXVILLE      MOCLDY    62  50  64 SW3       30.03R
OAK RIDGE      CLEAR     61  53  75 W3        30.03S
GATLINBURG     CLOUDY    59  50  72 CALM      30.03S
$$

TNZ083-085-099-260200-
SOUTHEAST TENNESSEE

CITY           SKY/WX    TMP DP  RH WIND       PRES   REMARKS
CHATTANOOGA    MOCLDY    66  58  75 CALM      30.03S
$$

SKY/WX REPORTED AS FAIR MEANS FEW OR NO CLOUDS BELOW
12 THOUSAND FEET.




USA.gov is the U.S. government's official web portal to all federal, state and local government web resources and services.